Location: Lecco
(45.8566°N, 9.3977°E)
Time: 11:54:05
(UTC+02:00)

ISS - Pass Details

Date: 22 July 2018
Orbit: 402 x 408 km, 51.6° (Epoch: 21 July)

Event Time Altitude Azimuth Distance (km) Brightness Sun altitude
Rises 21:59:56 0° 234° (SW) 2,309 0.2 -8.8°
Reaches altitude 10° 22:02:01 10° 232° (SW) 1,454 -0.9 -9.1°
Maximum altitude 22:05:15 69° 149° (SSE) 436 -3.9 -9.5°
Drops below altitude 10° 22:08:31 10° 65° (ENE) 1,465 -1.2 -9.9°
Sets 22:10:37 0° 63° (ENE) 2,329 -0.2 -10.2°
